Location: ??????
(38.4933°N, 23.1608°E)
Time: 10:17:11
(UTC+00:00)

Daily predictions for brighter satellites

Satellite Brightness Start Highest point End
(mag) Time Altitude Azimuth Time Altitude Azimuth Time Altitude Azimuth
Cosmos 1300 Rocket 3.9 15:35:16 10° SSW 15:39:38 70° W 15:44:01 10° N
Cosmos 1869 3.5 15:36:57 10° SSE 15:40:14 37° E 15:43:30 10° NNE
ISS -2.6 15:37:07 10° WSW 15:40:16 38° NNW 15:43:25 10° NE
CZ-2D R/B 3.5 15:38:06 10° SE 15:40:54 30° ENE 15:43:43 10° N
SJ-12 4.2 15:41:51 10° SE 15:45:23 38° ENE 15:48:55 10° N
IGS 5A 3.5 15:41:38 10° S 15:45:35 80° WSW 15:49:37 10° NNW
COSMO-SKYMED 1 4.0 15:46:42 10° NE 15:49:17 16° E 15:51:51 10° SE
SL-4 R/B 4.2 15:47:13 10° WNW 15:50:05 24° SW 15:53:02 10° S
Cosmos 540 Rocket 4.0 15:47:22 10° N 15:52:01 34° ENE 15:56:38 10° SE
Cosmos 1400 Rocket 4.2 15:51:09 10° SE 15:53:41 17° E 15:56:13 10° NE
CORIOLIS 4.1 15:49:57 10° SSE 15:55:19 84° ENE 16:00:41 10° NNW
Cosmos 1763 Rocket 3.7 15:52:22 10° N 15:57:22 46° ENE 16:02:15 10° SE
Cosmos 1975 Rocket 3.0 15:54:05 10° N 15:58:27 77° E 16:02:49 10° S
IRS-1C 4.1 15:55:23 10° SSE 16:00:39 72° ENE 16:05:58 10° N
Cosmos 2151 Rocket 4.4 15:57:42 10° SSE 16:01:33 29° E 16:05:25 10° NNE
SMAP 3.1 15:57:11 10° SSE 16:01:50 87° WSW 16:06:31 10° NNW
Cosmos 1812 2.3 15:59:11 10° SSE 16:01:56 41° E 16:04:42 10° NNE
OAO 2 Rocket 3.7 15:57:08 10° WSW 16:02:03 59° S 16:06:56 11° ESE
Cosmos 44 Rocket 3.2 15:58:01 10° SSW 16:02:44 87° ESE 16:07:39 10° NNE
Cosmos 1943 Rocket 2.2 15:58:59 10° SSW 16:04:37 89° WNW 16:10:14 10° NNE
OAO 3 Rocket 3.6 16:00:13 10° WSW 16:04:47 53° S 16:08:48 13° E
Cosmos 2058 3.5 16:06:26 10° NNE 16:09:59 31° ENE 16:13:31 10° SE
Okean 1 Rocket 4.2 16:08:14 10° SE 16:11:43 23° E 16:14:36 13° NE
Aureole 3 Rocket 2.1 16:09:12 10° S 16:12:15 65° E 16:15:18 10° NNE
Cosmos 2278 Rocket 2.3 16:07:25 10° SSW 16:13:04 81° WNW 16:18:45 10° NNE
CZ-2D R/B 4.2 16:09:49 10° SE 16:13:27 31° ENE 16:17:08 10° N
Cosmos 2082 Rocket 2.8 16:08:51 10° N 16:13:51 32° ENE 16:18:50 10° ESE
Landsat 7 3.7 16:09:40 10° SSE 16:14:19 89° E 16:19:00 10° NNW
SKYMED 2 3.8 16:11:01 10° NNE 16:15:15 48° E 16:19:26 10° S
Helios 1A Rocket 3.1 16:18:18 18° NE 16:20:16 33° E 16:23:21 10° SSE
Cosmos 1513 Rocket 4.5 16:14:10 10° S 16:20:28 79° E 16:26:54 10° N
Cosmos 2369 Rocket 3.9 16:21:08 10° SE 16:22:29 13° ESE 16:22:29 13° ESE
Cosmos 2251 Rocket 3.5 16:20:07 10° SSW 16:25:22 84° ESE 16:30:42 10° NNE
SL-19 R/B 4.5 16:25:17 10° SE 16:30:05 39° ENE 16:34:53 10° N
Cosmos 371 Rocket 3.5 16:26:26 10° S 16:31:01 47° ESE 16:34:20 18° NE
H-2A R/B 3.5 16:28:07 10° WSW 16:31:31 15° SSW 16:33:25 10° S
YAOGAN 1 3.0 16:28:02 10° SE 16:31:56 37° ENE 16:35:52 10° N
Cosmos 304 Rocket 3.9 16:27:44 10° S 16:32:17 51° ESE 16:35:37 18° NE
SJ 16-02 1.2 16:31:22 10° S 16:35:39 71° ESE 16:39:07 15° NNE
Cosmos 841 Rocket 4.3 16:32:27 10° N 16:36:53 27° ENE 16:37:10 27° ENE
ATLAS 2AS CENTAUR R/B 4.3 16:33:51 10° N 16:37:26 15° NNE 16:38:09 14° NE
Nadezhda 4 Rocket 4.0 16:32:14 10° N 16:38:24 55° E 16:44:26 10° SSE
BREEZE M DEB (TANK) 4.1 16:38:16 10° S 16:40:01 16° SSE 16:40:01 16° SSE
ARIANE 5 R/B 3.8 16:38:32 10° S 16:43:13 42° W 16:47:57 10° NNW
Resurs 1-3 3.7 16:39:35 10° SSE 16:43:42 47° ENE 16:47:51 10° N
Cosmos 1656 Rocket 3.9 16:39:35 10° S 16:44:47 45° ESE 16:47:09 29° NE
COSMOS 2406 3.8 16:41:22 10° N 16:46:26 32° ENE 16:47:01 32° ENE
USA 215 3.4 16:42:59 10° SE 16:49:30 77° SW 16:56:05 10° NW
Cosmos 468 Rocket 3.8 16:45:23 10° NNW 16:50:36 75° ENE 16:55:42 10° SSE
Cosmos 1862 2.9 16:47:12 10° N 16:50:49 72° E 16:54:26 10° SSE
MOS 1 Rocket 3.9 16:52:05 10° S 16:56:14 52° W 17:00:33 10° NNW
Okean 2 Rocket 3.0 16:51:54 10° S 16:56:17 86° W 17:00:34 11° N
Cosmos 1428 Rocket 4.4 16:51:53 10° N 16:58:08 66° E 17:04:23 10° SSE
Cosmos 676 Rocket 3.9 16:54:04 10° SSW 16:59:22 86° ESE 17:03:00 21° NNE
Cosmos 489 Rocket 4.4 16:53:53 10° NNW 17:00:04 60° ENE 17:06:10 10° SSE
Cosmos 1536 Rocket 3.5 16:55:51 10° N 17:00:17 89° W 17:04:40 10° S
H-II Stage 2 3.9 16:47:33 10° WSW 17:00:28 35° SSW 17:02:47 22° SE
ATLAS 5 CENTAUR R/B 4.2 17:01:12 10° WNW 17:05:19 26° WSW 17:10:07 10° S
Meteor 2-3 Rocket 3.8 17:00:51 10° N 17:06:21 50° ENE 17:07:28 44° ESE
RESURS DK-1 4.0 17:09:56 10° NW 17:13:32 33° WSW 17:17:07 10° S
USA 281 4.2 17:15:07 28° NNE 17:15:07 28° NNE 17:19:11 10° N
SPOT 1/Viking Rocket 4.2 17:10:04 10° S 17:15:06 55° W 17:20:11 10° NNW
BlueWalker 3 2.7 17:12:00 10° SW 17:14:33 43° SSW 17:14:33 43° SSW
ISS -0.9 17:16:37 10° NW 17:17:12 11° NNW 17:17:12 11° NNW
Cosmos 968 Rocket 3.6 17:16:26 10° S 17:20:39 55° SSE 17:20:39 55° SSE
Cosmos 1634 Rocket 3.9 17:16:18 10° S 17:22:27 60° E 17:22:50 58° ENE
COSMO-SKYMED 1 3.9 17:21:26 13° N 17:24:43 36° WNW 17:28:29 10° SW
DELTA 2 R/B (1) 3.6 17:22:10 10° WSW 17:27:38 65° SSE 17:27:39 65° SSE
BREEZE-M DEB (TANK) 4.4 17:29:48 10° NW 17:32:21 27° N 17:32:21 27° N
Cosmos 2034 Rocket 4.5 17:28:56 10° SSW 17:35:00 58° W 17:41:10 10° N
OAO 2 Rocket 4.3 17:41:34 10° W 17:45:42 40° SW 17:45:42 40° SW
OAO 3 Rocket 4.4 17:43:08 10° W 17:46:13 36° WSW 17:46:13 36° WSW
Cosmos 1092 Rocket 4.0 17:48:57 10° N 18:02:36 - S 17:54:59 75° WNW
Cosmos 2082 Rocket 3.7 17:52:53 10° NW 17:57:50 33° WSW 18:02:47 10° SSW
Cosmos 2026 Rocket 4.4 17:55:40 10° NNW 18:01:37 58° W 18:07:38 10° S
Cosmos 2369 Rocket 3.5 18:01:26 10° SSW 18:04:20 32° SW 18:04:20 32° SW
BREEZE-M DEB (TANK) 4.5 18:00:00 10° WNW 18:07:58 53° WNW 18:07:58 53° WNW
SJ 16-02 4.4 18:13:51 10° WNW 18:14:15 10° WNW 18:14:40 10° NW
ATLAS 2AS CENTAUR R/B 4.3 18:23:12 10° NNW 18:25:35 23° NNW 18:25:35 23° NNW
Cosmos 2344 4.2 18:39:42 10° NW 18:47:31 71° W 18:47:31 71° W
